[[{"header":{"parameterUnit":"m.s-1","parameterCategory":1,"la1":30.2991,"la2":30.254,"lo1":-89.0895,"lo2":-89.0444,"dy":0.0017,"dx":0.0017,"nx":28,"ny":28,"refTime":"2025-01-25T03:00:00:Z","depth":0,"parameterNumber":2,"parameterNumberName":"U-component_of_WINDS"},"data":[0,0,0,0,0,0,0,0,0,0,0,0,0,0,0,0,0,0,0,0,0,0,0,0,0,0,0,0,0,0,0,0,0,0,0,0,0,0,0,0,0,0,0,0,0,0,0,0,0,0,0,0,0,0,0,0,0,0,-2.2744,-2.2744,0,-2.2734,-2.2734,-2.2733,-2.2612,-2.2609,-2.2606,-2.2603,-2.2596,-2.2599,-2.2601,0,0,0,0,0,0,0,0,0,0,0,0,0,-2.2662,-2.2665,-2.2744,-2.2744,-2.2744,-2.2734,-2.2734,-2.2733,-2.2612,-2.2608,-2.2605,-2.2601,-2.2595,-2.2598,-2.2602,0,0,0,0,0,0,0,0,0,0,0,0,0,-2.268,-2.2665,-2.2744,-2.2682,-2.2677,-2.2734,-2.2734,-2.2733,-2.2613,-2.2608,-2.2604,-2.2599,-2.2594,-2.2598,-2.2602,-2.2719,0,0,-2.2614,-2.2616,0,0,0,0,0,0,0,0,-2.2679,-2.2683,-2.2692,-2.2687,-2.268,-2.2669,-2.2702,-2.2729,-2.2614,-2.2637,-2.2603,-2.2597,-2.2624,-2.2626,-2.2634,-2.2719,-2.2719,-2.2615,-2.2617,-2.2619,-2.262,0,0,0,0,0,0,0,-2.2678,-2.2683,-2.274,-2.2692,-2.2685,-2.2656,-2.2653,-2.2707,-2.2657,-2.2635,-2.2626,-2.2626,-2.262,-2.263,-2.2633,-2.2718,-2.2615,-2.2618,-2.2621,-2.2622,-2.2898,-2.2903,0,0,0,0,0,0,-2.2685,-2.2683,-2.2741,-2.274,-2.2668,-2.2661,-2.2658,-2.2678,-2.2656,-2.2648,-2.263,-2.2621,-2.2626,-2.2628,-2.2632,-2.2767,-2.2619,-2.2623,-2.2625,-2.2893,-2.2899,-2.2904,0,0,0,0,0,0,-2.2684,-2.2691,-2.2741,-2.2709,-2.2713,-2.2667,-2.269,-2.268,-2.2689,-2.2652,-2.2643,-2.2649,-2.2622,-2.2626,-2.2698,-2.2765,-2.2624,-2.2628,-2.2887,-2.2895,-2.2902,-2.304,0,0,0,0,0,0,-2.2682,-2.2691,-2.2735,-2.2711,-2.2715,-2.2807,-2.2694,-2.2683,-2.2696,-2.2684,-2.2668,-2.2661,-2.2619,-2.2693,-2.2702,-2.2768,-2.2631,-2.2881,-2.2891,-2.2899,-2.3029,-2.3051,-2.307,0,0,0,0,0,-2.2679,-2.2776,-2.2738,-2.2746,-2.2768,-2.2811,-2.2813,-2.2762,-2.2702,-2.2746,-2.2722,-2.2661,-2.2756,-2.2701,-2.271,-2.2779,-2.2877,-2.2888,-2.2899,-2.302,-2.3047,-2.3069,0,0,0,0,0,0,-2.2812,-2.2771,-2.2729,-2.282,-2.282,-2.279,-2.2844,-2.2792,-2.281,-2.2797,-2.2734,-2.2731,-2.2813,-2.2803,-2.2742,-2.2891,-2.2806,-2.2819,-2.2895,-2.292,-2.294,-2.2941,-2.2635,0,0,0,0,0,-2.2851,-2.2888,-2.2851,-2.2935,-2.2936,-2.2891,-2.2907,-2.2867,-2.2865,-2.2864,-2.2845,-2.2846,-2.2876,-2.2897,-2.2922,-2.3026,-2.3021,-2.3078,-2.3099,-2.3115,-2.3128,-2.3182,-2.3207,-2.2941,-2.294,-2.294,0,0,-2.2934,-2.2916,-2.2944,-2.2961,-2.2956,-2.2996,-2.2891,-2.2939,-2.2968,-2.2872,-2.2937,-2.2924,-2.292,-2.3008,-2.3046,-2.3003,-2.32,-2.313,-2.3143,-2.3147,-2.3196,-2.3221,-2.3244,-2.2948,-2.2947,-2.2946,0,0,-2.3105,-2.3095,-2.3163,-2.316,-2.3152,-2.312,-2.3137,-2.3115,-2.3101,-2.3166,-2.3094,-2.3129,-2.3181,-2.3182,-2.3189,-2.3358,-2.3303,-2.3368,-2.3475,-2.3528,-2.3548,-2.3567,-2.3627,-2.3649,-2.338,-2.3381,-2.3381,0,-2.3209,-2.3265,-2.3206,-2.3257,-2.3267,-2.3179,-2.3248,-2.3248,-2.325,-2.3259,-2.321,-2.3273,-2.3265,-2.3351,-2.3392,-2.3401,-2.3418,-2.337,-2.355,-2.3568,-2.3584,-2.3641,-2.3664,-2.3389,-2.3388,-2.3387,-2.3386,0,-2.3394,-2.3434,-2.349,-2.3492,-2.3508,-2.3568,-2.3518,-2.3541,-2.35,-2.3474,-2.354,-2.3527,-2.3547,-2.3565,-2.3525,-2.3646,-2.3619,-2.3561,-2.3474,-2.3618,-2.3671,-2.3692,-2.34,-2.3397,-2.3395,-2.3393,0,0,-2.365,-2.3616,-2.3638,-2.3637,-2.3621,-2.3652,-2.3707,-2.3726,-2.3747,-2.3751,-2.3797,-2.3842,-2.3788,-2.3796,-2.3756,-2.3802,-2.3936,-2.3738,-2.3737,-2.3776,-2.4068,-2.4112,-2.4138,-2.3899,-2.3903,-2.3906,-2.4068,0,-2.3815,-2.3907,-2.3854,-2.3954,-2.399,-2.3907,-2.3955,-2.3951,-2.3928,-2.3956,-2.393,-2.3964,-2.3889,-2.3894,-2.3936,-2.3911,-2.3994,-2.3899,-2.3942,-2.3944,-2.3946,-2.4165,-2.4212,-2.4366,-2.4088,-2.4092,-2.4094,0,-2.402,-2.403,-2.4134,-2.4109,-2.4122,-2.4167,-2.4179,-2.4206,-2.42,-2.4179,-2.4188,-2.4135,-2.4189,-2.4102,-2.4176,-2.4112,-2.4126,-2.4117,-2.4121,-2.4124,-2.4029,-2.4175,-2.4414,-2.4437,-2.4126,-2.4123,-2.4121,0,-2.4197,-2.4237,-2.4303,-2.4305,-2.4278,-2.4311,-2.4302,-2.4291,-2.4305,-2.4315,-2.4324,-2.4341,-2.4351,-2.4366,-2.432,-2.4262,-2.44,-2.431,-2.4385,-2.4387,-2.4419,-2.4418,-2.4665,-2.4428,-2.4428,-2.4427,-2.4427,0,-2.4387,-2.4454,-2.4382,-2.4423,-2.4495,-2.4433,-2.4507,-2.4488,-2.4479,-2.4515,-2.4444,-2.4481,-2.4417,-2.4447,-2.4412,-2.4478,-2.4483,-2.4469,-2.4458,-2.4475,-2.4477,-2.4484,-2.4473,-2.4433,-2.4432,-2.4431,-2.443,0,-2.4598,-2.4552,-2.4619,-2.4587,-2.458,-2.4635,-2.4608,-2.4645,-2.4615,-2.4663,-2.467,-2.4625,-2.4657,-2.4612,-2.4639,-2.4615,-2.4706,-2.4679,-2.4708,-2.47,-2.4778,-2.4772,-2.5039,-2.5071,-2.4814,-2.4816,-2.4818,0,-2.4722,-2.4771,-2.4743,-2.4761,-2.4756,-2.4787,-2.4799,-2.474,-2.4757,-2.4752,-2.479,-2.4815,-2.4832,-2.4886,-2.4857,-2.4877,-2.4851,-2.4943,-2.4854,-2.4868,-2.4852,-2.485,-2.4854,-2.4962,-2.4965,-2.4967,-2.4969,0,-2.4948,-2.4923,-2.4943,-2.4956,-2.4972,-2.498,-2.4982,-2.5002,-2.4939,-2.4962,-2.4992,-2.5005,-2.5031,-2.5057,-2.5069,-2.506,-2.5006,-2.4997,-2.5016,-2.5034,-2.5048,-2.5041,-2.4758,-2.4992,-2.499,-2.4988,-2.4987,-2.4986,-2.512,-2.5158,-2.5144,-2.5169,-2.5164,-2.5167,-2.52,-2.5173,-2.5197,-2.5212,-2.5176,-2.5215,-2.5206,-2.5217,-2.5214,-2.5244,-2.5204,-2.5231,-2.5238,-2.5246,-2.5258,-2.5043,-2.5246,-2.5246,-2.5245,-2.5244,-2.5244,0,-2.5342,-2.5328,-2.5351,-2.5355,-2.5375,-2.5318,-2.5317,-2.5338,-2.5372,-2.5368,-2.5385,-2.5419,-2.5443,-2.5415,-2.5434,-2.5464,-2.5439,-2.5471,-2.5468,-2.5467,-2.5293,-2.5275,-2.5491,-2.5491,-2.549,-2.549,-2.549,-2.549,-2.546,-2.5522,-2.5495,-2.5554,-2.5539,-2.5575,-2.5579,-2.5582,-2.5578,-2.5619,-2.5637,-2.5618,-2.5604,-2.5621,-2.5641,-2.5632,-2.5642,-2.5684,-2.5666,-2.5504,-2.548,-2.5457,-2.5439,-2.5686,-2.5687,-2.5838,-2.5839,-2.584]},{"header":{"parameterUnit":"m.s-1","parameterCategory":1,"la1":30.2991,"la2":30.254,"lo1":-89.0895,"lo2":-89.0444,"dy":0.0017,"dx":0.0017,"nx":28,"ny":28,"refTime":"2025-01-25T03:00:00:Z","depth":0,"parameterNumber":3,"parameterNumberName":"V-component_of_WINDS"},"data":[0,0,0,0,0,0,0,0,0,0,0,0,0,0,0,0,0,0,0,0,0,0,0,0,0,0,0,0,0,0,0,0,0,0,0,0,0,0,0,0,0,0,0,0,0,0,0,0,0,0,0,0,0,0,0,0,0,0,-3.1727,-3.1729,0,-3.1874,-3.1875,-3.1877,-3.1857,-3.1854,-3.1852,-3.185,-3.1998,-3.2004,-3.201,0,0,0,0,0,0,0,0,0,0,0,0,0,-3.1427,-3.1433,-3.1727,-3.1729,-3.1731,-3.1873,-3.1875,-3.1877,-3.1857,-3.1854,-3.1851,-3.1848,-3.1996,-3.2003,-3.201,0,0,0,0,0,0,0,0,0,0,0,0,0,-3.1564,-3.1435,-3.1727,-3.1738,-3.174,-3.1873,-3.1876,-3.1878,-3.1858,-3.1854,-3.185,-3.1847,-3.1993,-3.2002,-3.2011,-3.2142,0,0,-3.204,-3.2044,0,0,0,0,0,0,0,0,-3.1556,-3.1575,-3.1734,-3.1737,-3.174,-3.1843,-3.1824,-3.1966,-3.1859,-3.1813,-3.1849,-3.1845,-3.1949,-3.1962,-3.1997,-3.2149,-3.2155,-3.2041,-3.2046,-3.205,-3.2053,0,0,0,0,0,0,0,-3.1547,-3.1569,-3.1785,-3.1737,-3.174,-3.1735,-3.175,-3.1851,-3.19,-3.1817,-3.1816,-3.1833,-3.195,-3.1988,-3.2,-3.2157,-3.204,-3.2049,-3.2054,-3.2058,-3.2423,-3.2427,0,0,0,0,0,0,-3.1535,-3.1561,-3.178,-3.1789,-3.1637,-3.1743,-3.176,-3.1814,-3.1899,-3.1908,-3.1836,-3.1832,-3.1974,-3.199,-3.2006,-3.2164,-3.205,-3.2059,-3.2064,-3.2419,-3.2424,-3.2428,0,0,0,0,0,0,-3.1528,-3.1555,-3.1774,-3.1675,-3.1702,-3.1752,-3.1812,-3.1819,-3.1857,-3.1913,-3.1922,-3.1867,-3.1972,-3.1993,-3.2108,-3.2169,-3.2063,-3.2072,-3.2414,-3.242,-3.2426,-3.2482,0,0,0,0,0,0,-3.152,-3.1552,-3.1603,-3.1676,-3.1708,-3.1875,-3.1816,-3.1824,-3.1873,-3.1869,-3.1944,-3.1953,-3.1971,-3.2094,-3.2117,-3.218,-3.2079,-3.2409,-3.2417,-3.2424,-3.2474,-3.2489,-3.2501,0,0,0,0,0,-3.1509,-3.1612,-3.1606,-3.1632,-3.1772,-3.1879,-3.1897,-3.1916,-3.1878,-3.1929,-3.1965,-3.1951,-3.2158,-3.2106,-3.2132,-3.2198,-3.2405,-3.2415,-3.2423,-3.2469,-3.2486,-3.2501,0,0,0,0,0,0,-3.1544,-3.1622,-3.1615,-3.1745,-3.1806,-3.1875,-3.194,-3.1934,-3.2005,-3.1998,-3.2018,-3.2035,-3.2152,-3.2186,-3.2127,-3.2329,-3.2276,-3.2291,-3.2302,-3.2319,-3.2332,-3.2321,-3.2087,0,0,0,0,0,-3.1567,-3.1648,-3.1711,-3.182,-3.185,-3.189,-3.1937,-3.1947,-3.2009,-3.2035,-3.2079,-3.214,-3.2219,-3.2271,-3.2347,-3.2479,-3.2495,-3.2537,-3.2551,-3.2561,-3.2574,-3.2646,-3.2666,-3.2459,-3.2458,-3.2458,0,0,-3.1615,-3.1667,-3.1717,-3.1828,-3.1876,-3.1958,-3.1912,-3.2001,-3.2062,-3.2048,-3.216,-3.2195,-3.2264,-3.2389,-3.2446,-3.2422,-3.2635,-3.2573,-3.2581,-3.2588,-3.2658,-3.2677,-3.2695,-3.2465,-3.2464,-3.2463,0,0,-3.1744,-3.1792,-3.1888,-3.1937,-3.201,-3.2036,-3.2059,-3.213,-3.2153,-3.2266,-3.2257,-3.233,-3.2466,-3.2516,-3.2559,-3.2707,-3.2696,-3.2731,-3.2801,-3.2871,-3.2887,-3.2902,-3.2955,-3.2974,-3.2744,-3.2744,-3.2744,0,-3.1794,-3.1919,-3.1938,-3.2029,-3.2078,-3.2069,-3.2166,-3.2212,-3.2306,-3.234,-3.2311,-3.2482,-3.2528,-3.2664,-3.27,-3.2736,-3.2762,-3.2723,-3.2884,-3.2899,-3.2912,-3.2963,-3.2983,-3.2748,-3.2747,-3.2747,-3.2746,0,-3.1977,-3.2064,-3.2132,-3.2224,-3.2281,-3.2374,-3.2406,-3.2461,-3.2465,-3.2494,-3.2609,-3.2664,-3.2751,-3.2784,-3.2789,-3.2921,-3.2904,-3.2879,-3.2827,-3.2936,-3.2984,-3.3003,-3.2753,-3.2752,-3.2751,-3.275,0,0,-3.2133,-3.2234,-3.2259,-3.23,-3.2381,-3.2448,-3.254,-3.2626,-3.2673,-3.2738,-3.2816,-3.2931,-3.2909,-3.2958,-3.2968,-3.303,-3.3144,-3.2998,-3.3,-3.3023,-3.3293,-3.3311,-3.3333,-3.3137,-3.3141,-3.3144,-3.3287,0,-3.227,-3.2435,-3.2454,-3.26,-3.268,-3.2674,-3.2754,-3.2812,-3.2841,-3.2913,-3.2945,-3.3026,-3.2991,-3.3021,-3.3081,-3.3117,-3.3199,-3.3107,-3.321,-3.3213,-3.3193,-3.3359,-3.3378,-3.351,-3.3306,-3.3309,-3.3312,0,-3.2452,-3.2523,-3.2678,-3.2747,-3.2781,-3.2854,-3.2934,-3.3003,-3.3068,-3.3084,-3.3139,-3.3142,-3.3237,-3.3181,-3.3312,-3.325,-3.3292,-3.3316,-3.3322,-3.3332,-3.3269,-3.3373,-3.3553,-3.3573,-3.3342,-3.3339,-3.3337,0,-3.255,-3.2684,-3.2794,-3.283,-3.2914,-3.2965,-3.3002,-3.3063,-3.3113,-3.3183,-3.3216,-3.3296,-3.3339,-3.3401,-3.3424,-3.3381,-3.3554,-3.35,-3.357,-3.357,-3.3607,-3.3604,-3.3796,-3.3635,-3.3634,-3.3634,-3.3634,0,-3.2701,-3.2796,-3.2839,-3.2907,-3.3013,-3.3034,-3.3138,-3.3172,-3.3227,-3.3301,-3.33,-3.3369,-3.3396,-3.3469,-3.3488,-3.3594,-3.3613,-3.3629,-3.3633,-3.363,-3.3628,-3.3658,-3.3649,-3.3639,-3.3638,-3.3637,-3.3636,0,-3.2829,-3.2862,-3.2981,-3.305,-3.307,-3.3145,-3.3204,-3.3269,-3.3297,-3.3391,-3.3414,-3.3458,-3.3545,-3.3574,-3.3679,-3.3691,-3.3814,-3.381,-3.3793,-3.3793,-3.3862,-3.3855,-3.408,-3.4111,-3.3929,-3.3931,-3.3932,0,-3.2923,-3.2996,-3.3074,-3.3123,-3.3163,-3.3242,-3.3294,-3.3317,-3.3371,-3.3451,-3.3506,-3.3592,-3.3662,-3.38,-3.3841,-3.3921,-3.3919,-3.3992,-3.3931,-3.3925,-3.392,-3.3915,-3.3923,-3.4003,-3.4005,-3.4007,-3.4008,0,-3.3087,-3.31,-3.3175,-3.3256,-3.3317,-3.3382,-3.3444,-3.3485,-3.3517,-3.3577,-3.3666,-3.372,-3.3827,-3.3912,-3.3994,-3.4031,-3.4025,-3.4027,-3.4048,-3.4045,-3.4031,-3.404,-3.3824,-3.4022,-3.402,-3.4019,-3.4019,-3.4018,-3.3201,-3.3266,-3.3331,-3.3414,-3.3463,-3.3522,-3.3586,-3.3623,-3.3698,-3.3787,-3.3796,-3.3891,-3.3954,-3.4063,-3.4105,-3.4179,-3.4159,-3.4188,-3.4196,-3.4203,-3.4208,-3.402,-3.4194,-3.4194,-3.4193,-3.4193,-3.4193,0,-3.3366,-3.3407,-3.3483,-3.3571,-3.3636,-3.3626,-3.3694,-3.3749,-3.3834,-3.3893,-3.3962,-3.4064,-3.4146,-3.4194,-3.4277,-3.4327,-3.4327,-3.4348,-3.4345,-3.4353,-3.4222,-3.4196,-3.4347,-3.4347,-3.4347,-3.4347,-3.4347,-3.4347,-3.3459,-3.3567,-3.3588,-3.372,-3.3761,-3.3855,-3.3895,-3.3949,-3.3996,-3.411,-3.4179,-3.421,-3.4265,-3.4351,-3.4426,-3.4438,-3.4469,-3.4492,-3.4502,-3.4378,-3.4362,-3.4347,-3.4323,-3.4499,-3.4499,-3.4627,-3.4629,-3.463]}]]